{"data":{"norad_id":55585,"intl_designator":"2023-020S","name":"STARLINK-5769","alt_names":[],"object_type":"PAYLOAD","status":"ACTIVE","operator":null,"country":"US","launch_date":"2023-02-12","launch_site_code":"AFETR","launch_vehicle":null,"mission":null,"orbit_class":"UNKNOWN","rcs_meters":null,"size_class":null,"mass_kg":null,"dimensions":null,"purposes":["comms"],"wikipedia_slug":null,"has_3d_model":false,"image_url":null,"decayed_at":null,"tle_current":{"epoch":"2026-09-20T15:47:36.504960Z","epoch_age_seconds":86750,"freshness":"FRESH","line1":"1 55585U 23020S   26263.65806140  .00003848  00000+0  14920-3 0  9995","line2":"2 55585  43.0037 333.4713 0001704 281.0332  79.0328 15.27603034198853","mean_motion":15.27603034,"eccentricity":0.0001704,"inclination_deg":43.0037,"raan_deg":333.4713,"arg_perigee_deg":281.0332,"mean_anomaly_deg":79.0328,"bstar":0.0001492,"rev_number":19885,"period_min":94.265327310158,"perigee_km":481.81099046581,"apogee_km":484.14925918195,"semimajor_km":6861.1171248239,"source":"CELESTRAK","updated_at":"2026-09-21T09:00:33.266717Z"}}}